Location: Wellington
(41.3000°S, 174.7830°E)
Time: 17:37:04
(UTC+13:00)

MetOp-B - Pass Details

Date: 24 January 2019
Orbit: 819 x 821 km, 98.7° (Epoch: 22 October)

Event Time Altitude Azimuth Distance (km) Brightness Sun altitude
Rises 23:11:46 0° 167° (SSE) 3,393 8.0 -21.2°
Reaches altitude 10° 23:14:08 10° 167° (SSE) 2,453 7.1 -21.5°
Maximum altitude 23:19:36 88° 253° (WSW) 837 4.1 -22.1°
Enters shadow 23:21:59 35° 343° (NNW) 1,312 4.9 -22.3°
